This demonstration page uses our WeatherBlox Daily Observations layout. Learn more.

Left ArrowRight Arrow

44.8408, -93.29828

Hourly Observations for September 19, 2016

Temp ( °F °C ) Dew Point ( °F °C ) Humidity (%) Winds ( mph kmh ) Pressure ( in mb ) Visibility ( mi km ) Precip ( " mm )
12:53 am 00:53 Mostly Clear 74 23.3 58 14.4 57 57 SW 14 22 29.78 1008 10 16 0.00 0.00
1:53 am 01:53 Partly Cloudy 72 22.2 58 14.4 61 61 SW 13 20 29.78 1009 10 16 0.00 0.00
2:53 am 02:53 Partly Cloudy 70 21.1 59 15 68 68 SW 9 15 29.79 1009 10 16 0.00 0.00
3:53 am 03:53 Partly Cloudy 69 20.6 59 15 70 70 SW 12 19 29.79 1009 10 16 0.00 0.00
4:53 am 04:53 Partly Cloudy 67 19.4 60 15.6 79 79 WSW 7 11 29.81 1010 10 16 0.00 0.00
5:53 am 05:53 Mostly Cloudy 66 18.9 60 15.6 81 81 W 7 11 29.83 1010 10 16 0.00 0.00
6:53 am 06:53 Mostly Cloudy 66 18.9 59 15 78 78 W 5 7 29.87 1012 10 16 0.00 0.00
7:53 am 07:53 Cloudy 65 18.3 59 15 81 81 NNW 7 11 29.90 1013 10 16 0.00 0.00
8:53 am 08:53 Mostly Cloudy 68 20 51 10.6 55 55 NNW 13 20 29.93 1014 10 16 0.00 0.00
9:53 am 09:53 Cloudy 68 20 52 11.1 57 57 Calm 29.94 1014 10 16 0.00 0.00
10:53 am 10:53 Mostly Cloudy with Light Rain 66 18.9 53 11.7 63 63 SSE 8 13 29.93 1014 9 14 0.01 0.25
11:53 am 11:53 Mostly Cloudy 69 20.6 53 11.7 57 57 Calm 29.94 1014 10 16 0.00 0.03
12:53 pm 12:53 Partly Cloudy 70 21.1 54 12.2 57 57 WSW 3 6 29.96 1015 10 16 0.00 0.00
1:53 pm 13:53 Mostly Sunny 74 23.3 53 11.7 48 48 WSW 8 13 29.96 1015 10 16 0.00 0.00
2:53 pm 14:53 Mostly Sunny 76 24.4 51 10.6 42 42 W 9 15 29.95 1014 10 16 0.00 0.00
3:53 pm 15:53 Mostly Sunny 77 25 51 10.6 40 40 WSW 8 13 29.95 1014 10 16 0.00 0.00
4:53 pm 16:53 Mostly Sunny 78 25.6 50 10 37 37 WSW 7 11 29.95 1014 10 16 0.00 0.00
5:53 pm 17:53 Sunny 78 25.6 51 10.6 39 39 WNW 6 9 29.96 1015 10 16 0.00 0.00
6:53 pm 18:53 Sunny 73 22.8 48 8.9 41 41 WNW 6 9 29.97 1015 10 16 0.00 0.00
7:53 pm 19:53 Clear 72 22.2 48 8.9 43 43 NW 6 9 29.98 1015 10 16 0.00 0.00
8:53 pm 20:53 Clear 71 21.7 50 10 47 47 SW 3 6 30.00 1016 10 16 0.00 0.00
9:53 pm 21:53 Clear 68 20 51 10.6 55 55 Calm 30.01 1016 10 16 0.00 0.00
10:53 pm 22:53 Clear 63 17.2 54 12.2 73 73 Calm 30.04 1017 10 16 0.00 0.00
11:53 pm 23:53 Clear 63 17.2 53 11.7 70 70 Calm 30.05 1018 10 16 0.00 0.00

Powered by AerisWeather